SL-3 R/B (13819 NORAD) Tracking and Keplerian Element Data

This shows tracking and keplerian element data for the satellite.

Feedback or suggestion? Click here.




ElementValue
Catalog13819
NameSL-3 R/B
Epoch Orbit29652
Epoch Day34.66944561
Epoch Year2025
RAAN126.8721
Inclination81.1085
Eccentricity0.0019761
Argument of Perigee352.6042
Mean Anonmoly7.4902
Mean Motion15.34492403
Decay Rate0.00015432
L11 13819U 83010B 25034.66944561 .00015432 00000+0 45795-3 0 9996
L22 13819 81.1085 126.8721 0019761 352.6042 7.4902 15.34492403296521



Live tracking and technical data element details for SL-3 R/B (NORAD 13819). SL-3 R/B can be tracked NOW for your location showing map with azimuth and elevation plus other details from your city location.







IsCatalogInMostPopularTable: catalog: 13819, numindb: 342
Update: records affected: 1



GetName: 13819 SL-3 R/B

Hit Count: updated at: Thu, 15 May 2025 11:04:22 GMT